Location: Kaseke
(18.0171°S, 31.0526°E)
Time: 11:51:54
(UTC+00:00)

H-2A R/B - Pass Details

Date: 14 July 2020
Orbit: 528 x 653 km, 98.3° (Epoch: 08 August)

Event Time Altitude Azimuth Distance (km) Brightness Sun altitude
Rises 02:11:52 0° 31° (NNE) 2,721 6.5 -31.4°
Reaches altitude 10° 02:14:09 10° 40° (NE) 1,816 5.6 -30.9°
Enters shadow 02:16:48 29° 78° (ENE) 1,016 4.2 -30.3°
